Regional Weather Roundup
Issued by NWS Raleigh/Durham, NC

Home | Current Version | Previous Version | Text Only | Print | Product List | Glossary On
Versions: 1 2 3 4 5 6 7 8 9 10 11 12 13 14 15 16 17 18 19 20 21 22 23 24 25 26 27 28 29 30 31 32 33 34 35 36
000
ASUS42 KRAH 230310
RWRRAH
NORTH CAROLINA WEATHER ROUNDUP
NATIONAL WEATHER SERVICE RALEIGH NC
1100 PM EDT WED OCT 22 2014

NOTE: "FAIR" INDICATES FEW OR NO CLOUDS BELOW 12,000 FEET WITH NO
SIGNIFICANT WEATHER AND/OR OBSTRUCTIONS TO VISIBILITY.

NCZ001-053-055-056-065-067-230400-
WESTERN NORTH CAROLINA

CITY           SKY/WX    TMP DP  RH WIND       PRES   REMARKS
ASHEVILLE      CLEAR     46  36  68 N13       30.16S
JEFFERSON      CLEAR     41  34  74 NW9G20    30.11S
MORGANTON      CLEAR     43  38  83 CALM      30.16S
HICKORY        CLEAR     45  37  73 W5        30.11R
RUTHERFORDTON  CLEAR     48  37  65 CALM      30.13R
MOUNT AIRY     CLEAR     52  41  64 NW14G21   30.11S
BOONE          CLEAR     41  34  75 W12G18    30.13R
$$

NCZ021-022-025-041-071-084-088-230400-
CENTRAL NORTH CAROLINA

CITY           SKY/WX    TMP DP  RH WIND       PRES   REMARKS
CHARLOTTE      CLEAR     48  38  68 CALM      30.11R
GREENSBORO     CLEAR     49  39  68 CALM      30.06S
WINSTON-SALEM  CLEAR     50  38  63 N9        30.08S
RALEIGH-DURHAM CLEAR     52  41  66 VRB5      30.03S
FORT BRAGG     CLEAR     54  41  62 NW9       30.04R
FAYETTEVILLE   CLEAR     55  41  59 W9        30.04R
BURLINGTON     CLEAR     51  39  63 NW8       30.05S
LAURINBURG     CLEAR     51  41  68 NW6       30.07R
$$

NCZ011-015-027-028-043-044-047-080-103-230400-
NORTHEASTERN NORTH CAROLINA

CITY           SKY/WX    TMP DP  RH WIND       PRES   REMARKS
ROCKY MT-WILSO CLEAR     54  46  74 NW5       30.00S
GREENVILLE     CLEAR     55  46  71 NW3       30.00S
WASHINGTON     PTCLDY    54  47  75 NW5       29.97S
ELIZABETH CITY CLOUDY    57  48  72 NW15G25   29.92R
MANTEO         CLOUDY    56  49  77 NW17G23   29.90R
CAPE HATTERAS  CLOUDY    57  50  77 NW15G26   29.90S
$$

NCZ078-087-090-091-093-098-101-230400-
SOUTHEASTERN NORTH CAROLINA

CITY           SKY/WX    TMP DP  RH WIND       PRES   REMARKS
LUMBERTON      CLEAR     54  42  64 NW9       30.05R
GOLDSBORO      PTCLDY    56  49  76 W6        29.99S
KINSTON        CLEAR     55  47  74 NW3       30.00S
KENANSVILLE    MOCLDY    54  43  67 W3        30.02S
NEW BERN       PTCLDY    57  47  69 NW9       29.98F
CHERRY POINT   PTCLDY    57  47  69 NW10      29.99R
BEAUFORT       PTCLDY    58  48  69 NW17      29.97S
JACKSONVILLE   CLOUDY    56  46  69 W6        30.00R
WILMINGTON     CLEAR     56  45  66 NW8       30.02R
$$




USA.gov is the U.S. government's official web portal to all federal, state and local government web resources and services.